(3552) Don Quixote (2009)

Japanese version
Home page
Total 5,708 html files since Dec. 4, 1995
Updated on April 26, 2008

---------------------------------------------------------------------

* Profile

* Orbital Elements

The following orbital elements are taken from MPO128610

Epoch 2007 Oct. 27.0 TT = JDT 2454400.5                 MPC
M 282.60584              (2000.0)            P               Q
n   0.11337481     Peri.  317.05715     +0.62274079     +0.77758418
a   4.2279029      Node   350.26854     -0.50250192     +0.31230825
e   0.7137110      Incl.   30.94957     -0.59973805     +0.54573473
P   8.69           H   13.0           G   0.15           U   1
From 166 observations at 11 oppositions, 1983-2007, mean residual 0".74.

* Finding Charts

* Magnitudes Graph

        H = 13.0  G = 0.15

---------------------------------------------------------------------

The orbital elements are published at the MPC Ephemerides and Orbital Elements.
The charts are made with StellaNavigator Ver.2.0 for Windows (AstroArts / ASCII).
The magnitudes graphs are made with Comet for Windows.

---------------------------------------------------------------------

Copyright(C) 1995-2007 Seiichi Yoshida (comet@aerith.net). All rights reserved.